Regional Weather Roundup
Issued by NWS

Home | Current Version | Previous Version | Text Only | Print | Product List | Glossary Off
Versions: 1 2 3 4 5 6 7 8 9 10 11 12 13 14 15 16 17 18 19 20 21 22 23 24 25 26 27 28 29 30 31 32 33 34 35 36 37 38 39 40 41 42 43 44 45 46 47 48 49 50

954
ASUS43 KMPX 090501
RWRMN
WEATHER ROUNDUP FOR MINNESOTA
NATIONAL WEATHER SERVICE TWIN CITIES/CHANHASSEN MN
1100 PM CST MON FEB 08 2016


NOTE: "FAIR" INDICATES FEW OR NO CLOUDS BELOW 12,000 FEET WITH NO
SIGNIFICANT WEATHER AND/OR OBSTRUCTIONS TO VISIBILITY. N/A MEANS
CURRENT SKY AND/OR WEATHER CONDITIONS ARE NOT AVAILABLE.

MNZ060>063-068>070-090600-
   Twin Cities Metro

CITY           SKY/WX    TMP DP  RH WIND       PRES   REMARKS
TWIN CITIES    FLURRIES  13   4  67 NW17G25   29.99R WCI  -4
ST PAUL        CLOUDY    13   4  67 NW17      30.00R WCI  -4
CRYSTAL        FLURRIES  13   4  67 NW20G25   29.99R WCI  -5
BLAINE         FLURRIES  14   7  73 N16       29.98S WCI  -2
LAKEVILLE      FLURRIES  10   7  85 NW16G24   29.96S WCI  -7
EDEN PRAIRIE   CLOUDY    13   4  67 NW16G23   29.99R WCI  -3
SOUTH ST PAUL  CLOUDY    14   4  65 NW14G22   29.97S WCI  -1
LAKE ELMO      CLOUDY    14   5  67 N12       29.97R WCI   0
$$
MNZ001>005-007-008-013>017-022>024-027-028-090600-
   Northwest Minnesota

CITY           SKY/WX    TMP DP  RH WIND       PRES   REMARKS
BEMIDJI        CLOUDY     4  -2  77 N15G22    30.09S WCI -14
HALLOCK        CLOUDY     3   0  85 N10       30.25F WCI -12
ROSEAU         CLOUDY     3  -2  78 N14         N/A  WCI -15
WARROAD        CLOUDY     3   0  85 NW12G17   30.18R WCI -13
CROOKSTON      CLEAR      7   1  78 N16       30.25R WCI -11
FOSSTON        CLOUDY     3   0  85 N18       30.17R FOG     WCI -17
DETROIT LAKES  CLOUDY     9   5  85 N18G26    30.13R FOG     WCI -10
MOORHEAD       CLEAR      7   1  78 N18G25    30.23R WCI -12
PARK RAPIDS    CLOUDY     7  -1  70 N16G26    30.06S WCI -11
MAHNOMEN       CLOUDY     6   2  82 N18       30.15S FOG     WCI -13
$$
MNZ006-009>011-018-025>026-090600-
   North Central Minnesota

CITY           SKY/WX    TMP DP  RH WIND       PRES   REMARKS
BAUDETTE       CLOUDY     3  -3  76 NW13      30.11S WCI -14
FLAG ISLAND    MOCLDY     1  -2  85 NW13      30.15S WCI -16
INTL FALLS     CLOUDY     1  -5  75 NW14      30.07R WCI -17
WASKISH        CLOUDY     5   0  78 NW12      30.12S WCI -11
LONGVILLE      CLOUDY     7   0  72 NW8G20    30.05R WCI  -6
GRAND RAPIDS   CLOUDY     3  -4  72 NW16G22   30.01R WCI -16
CRANE LAKE     CLOUDY     1  -2  85 N7        30.04R WCI -11
ORR            CLOUDY     1  -6  71 NW9G18    29.98R WCI -14
COOK           CLOUDY     1  -2  85 NW6       30.00R WCI -10
WALKER         CLOUDY     5  -2  72 NW17G25   30.07R HAZE    WCI -14
$$
MNZ012-019>021-037-090600-
   Northeast Minnesota

CITY           SKY/WX    TMP DP  RH WIND       PRES   REMARKS
DULUTH         CLOUDY     4  -4  69 N13G21    29.92R WCI -13
ELY            CLOUDY     3  -2  78 NW10G18   29.93S WCI -12
HIBBING        CLOUDY     1  -4  79 NW18      29.98R WCI -20
EVELETH        MOCLDY     3  -2  78 NW12G18   29.98R WCI -13
DULUTH HARBOR  CLOUDY    10   1  67 NW14G20   30.01S WCI  -5
TWO HARBORS    CLOUDY     9   0  66 NW8G23    29.91R WCI  -4
SILVER BAY     CLOUDY     9   0  66 NW9G16    29.89S WCI  -5
GRAND MARAIS     N/A     11   1  64 VRB6      29.90R WCI   1
G MARAIS ARPRT LGT SNOW   3  -2  78 NW17G29   29.77R WCI -17
$$
MNZ029>031-032-039>041-046>048-054>057-064-090600-
   West Central Minnesota

CITY           SKY/WX    TMP DP  RH WIND       PRES   REMARKS
FERGUS FALLS   CLOUDY     7   1  78 N23G35    30.18S WCI -14
WHEATON        CLOUDY    10   3  72 NW17G28   30.21R WCI  -7
MORRIS         CLOUDY     9   3  78 N25G33    30.11F HAZE    WCI -13
ALEXANDRIA     CLOUDY     7   0  73 N17G25    30.07S WCI -12
ELBOW LAKE     CLOUDY     7   2  80 NW21G28   30.13S WCI -13
WADENA         FLURRIES   7   1  78 N12       30.07S WCI  -9
GLENWOOD       CLOUDY     9   1  72 NW20      30.07S WCI -11
APPLETON       CLOUDY    10   3  72 N28G35    30.13F WCI -11
BENSON         CLOUDY     9   3  78 N15G24    30.10F WCI  -8
ORTONVILLE     CLEAR      9   1  72 N23G33    30.15S WCI -12
MADISON        PTCLDY    10   5  79 N29G36    30.15S HAZE    WCI -11
WILLMAR        CLOUDY    10   5  79 N20G29    30.08S WCI  -8
$$
MNZ033>034-036-042>043-049>051-058-059-090600-
   Central Minnesota

CITY           SKY/WX    TMP DP  RH WIND       PRES   REMARKS
ST CLOUD       CLOUDY    10   1  67 N16G29    30.01F WCI  -7
SAUK CENTRE    CLOUDY     8   2  74 NW17G25   30.06S WCI -10
PAYNESVILLE    CLOUDY    10   3  76 NW16G25   30.05S WCI  -8
AITKIN         MIX PCPN   9  -2  61 NW8       30.01R WCI  -4
PINE RIVER     CLOUDY     7   0  72 NW16G24   30.08R WCI -11
BRAINERD       CLOUDY     8   1  73 N17       30.04R WCI -10
STAPLES        CLOUDY     7   1  78 N13G25    30.06R WCI  -9
LONG PRAIRIE   CLOUDY     9   3  78 NW16G22   30.05S WCI  -9
LITTLE FALLS   CLOUDY    10   1  67 NW12G18   30.04S WCI  -4
LITCHFIELD     CLOUDY    10   7  85 NW23      30.04S WCI -10
BUFFALO        CLOUDY    12   3  69 NW15G22   30.03R WCI  -4
MAPLE LAKE     FLURRIES  13   5  71 NW23      30.03R WCI  -7
$$
MNZ037-044-045-052-053-090600-
   East Central Minnesota

CITY           SKY/WX    TMP DP  RH WIND       PRES   REMARKS
PRINCETON      FLURRIES  12   3  67 NW15G23   30.01R WCI  -4
MORA           CLOUDY    10   1  67 N14G20    30.01S WCI  -5
CAMBRIDGE      FLURRIES  12   1  62 NW15G21   29.98R WCI  -4
RUSH CITY      CLOUDY    10   1  68 N14G21    29.99S WCI  -7
MOOSE LAKE     CLOUDY     9   0  66 N6        29.98R WCI  -1
HINCKLEY       CLOUDY    10   1  67 NW20      29.98S WCI  -8
CLOQUET        CLOUDY     5  -2  72 NW21      29.95R WCI -16
MCGREGOR       CLOUDY     9   1  72 N14G25    30.01R WCI  -8
$$
MNZ071>073-080-081-089-090-097-098-090600-
   Southwest Minnesota

CITY           SKY/WX    TMP DP  RH WIND       PRES   REMARKS
MONTEVIDEO     PTCLDY     9   3  78 N22G29    30.13F WCI -11
GRANITE FALLS  PTCLDY    11   4  71 NW21G35   30.12F WCI  -7
CANBY          PTCLDY    13   7  78 NW21G29   30.15S WCI  -5
MARSHALL       CLOUDY    10   4  76 N26G33    30.09F WCI -11
REDWOOD FALLS  CLOUDY    11   2  67 NW21G35   30.07F WCI  -8
OLIVIA         CLOUDY    12   5  73 NW22G31   30.06S WCI  -7
PIPESTONE      CLEAR     12   3  67 N18G28    30.07F WCI  -5
WINDOM         CLOUDY     9   3  78 NW33      30.02F HAZE    WCI -15
WORTHINGTON    CLOUDY   N/A N/A N/A N28G35    30.05S
JACKSON        CLOUDY    10   3  72 NW30G39   30.01F WCI -12
TRACY          CLOUDY    11   5  77 N22G37    30.07F WCI  -8
SLAYTON        CLOUDY     8   6  89 NW26G35   30.05F FOG     WCI -14
$$
MNZ065>067-074>077-082>085-091>093-090600-
   South Central Minnesota

CITY           SKY/WX    TMP DP  RH WIND       PRES   REMARKS
MANKATO        CLOUDY   N/A N/A N/A N24       29.98S
NEW ULM        FLURRIES  10   3  72 NW23G33   30.01S WCI -10
ST JAMES       CLOUDY    10   5  79 NW29G35   30.04F WCI -11
FAIRMONT       CLOUDY    10   1  67 NW29G35   29.99S WCI -11
GLENCOE        CLOUDY    13   6  74 NW20G25   30.01S WCI  -5
FARIBAULT      FLURRIES  12   7  79 NW18G26   29.96S WCI  -5
OWATONNA       LGT SNOW  12   7  79 NW25      29.94R WCI  -8
WASECA         FLURRIES  12   7  79 NW22G28   29.97S WCI  -7
ALBERT LEA     FLURRIES  12   7  79 NW15G21   29.93R WCI  -4
$$
MNZ078>079-086>088-094>096-090600-
   Southeast Minnesota

CITY           SKY/WX    TMP DP  RH WIND       PRES   REMARKS
ROCHESTER      LGT SNOW  12   7  80 N21G28    29.88S WCI  -7
RED WING       CLOUDY    14   3  62 N12G18    29.95R WCI   0
STANTON        CLOUDY    15   7  73 NW18      29.95R WCI  -2
DODGE CENTER   FLURRIES  10   7  85 N16       29.90S WCI  -7
WINONA         CLOUDY    16   9  73 N7G20     29.92S WCI   6
AUSTIN         LGT SNOW  10   7  85 NW15G21   29.90S WCI  -6
PRESTON        LGT SNOW  12   7  81 N15G23    29.87S WCI  -4
$$
ABBREVIATIONS USED IN REMARKS
   TC - TEMPERATURES IN CELSIUS
  WCI - WIND CHILL INDEX
   HX - HEAT INDEX
  VSB - VISIBILITY
$$




USA.gov is the U.S. government's official web portal to all federal, state and local government web resources and services.